Location: Bodest
(46.3000°N, 22.5667°E)
Time: 23:32:13
(UTC+00:00)

Cosmos 1626 Rocket - Pass Details

Date: 16 October 2021
Orbit: 602 x 631 km, 82.5° (Epoch: 26 November)

Event Time Altitude Azimuth Distance (km) Brightness Sun altitude
Rises 17:44:28 0° 351° (N) 2,877 7.2 -22.0°
Reaches altitude 10° 17:46:42 10° 353° (N) 1,965 6.3 -22.3°
Maximum altitude 17:51:03 81° 80° (E) 618 3.3 -23.1°
Enters shadow 17:51:04 81° 85° (E) 618 3.3 -23.1°
